This is the latest recevied weather packets stored in our database for station/object WB5CFT. If no packets are shown the sender has not sent any weather packets the latest 10 day(s).
| Time | Temp. | Humidity | Pressure | Rain* | Wind** | Luminosity | Snow |
|---|---|---|---|---|---|---|---|
| 1777468621 | 18.89° C | 22% | 1016.9 hPa | 0 mm | - | 33 W/m² | - |
| 1777468318 | 18.89° C | 24% | 1016.9 hPa | 0 mm | - | 19 W/m² | - |
| 1777468014 | 18.33° C | 24% | 1016.9 hPa | 0 mm | - | 15 W/m² | - |
| 1777467710 | 18.89° C | 24% | 1016.7 hPa | 0 mm | - | 17 W/m² | - |
| 1777467406 | 18.89° C | 24% | 1016.8 hPa | 0 mm | - | 12 W/m² | - |
| 1777467101 | 18.89° C | 23% | 1016.7 hPa | 0 mm | - | 6 W/m² | - |
| 1777466798 | 18.89° C | 22% | 1016.4 hPa | 0 mm | - | 5 W/m² | - |
| 1777466497 | 18.89° C | 23% | 1016.1 hPa | 0 mm | - | 4 W/m² | - |
| 1777466192 | 18.89° C | 23% | 1016.2 hPa | 0 mm | - | 3 W/m² | - |
| 1777465889 | 18.89° C | 24% | 1016 hPa | 0 mm | - | 3 W/m² | - |
| 1777465585 | 18.33° C | 26% | 1015.8 hPa | 0 mm | - | 2 W/m² | - |
| 1777465281 | 18.33° C | 24% | 1016 hPa | 0 mm | - | 1 W/m² | - |
| 1777464975 | 18.33° C | 25% | 1015.7 hPa | 0 mm | - | 1 W/m² | - |
| 1777464670 | 18.33° C | 25% | 1015.8 hPa | 0 mm | - | 0 W/m² | - |
| 1777464367 | 18.89° C | 24% | 1015.2 hPa | 0 mm | - | 0 W/m² | - |
| 1777464062 | 18.89° C | 24% | 1015.1 hPa | 0 mm | - | 0 W/m² | - |
| 1777463757 | 18.89° C | 25% | 1015.1 hPa | 0 mm | - | 0 W/m² | - |
| 1777463452 | 19.44° C | 23% | 1015.1 hPa | 0 mm | - | 0 W/m² | - |
| 1777463148 | 19.44° C | 22% | 1015 hPa | 0 mm | - | 0 W/m² | - |
| 1777462844 | 18.89° C | 23% | 1015 hPa | 0 mm | - | 0 W/m² | - |
| 1777462540 | 19.44° C | 24% | 1014.7 hPa | 0 mm | - | 0 W/m² | - |
| 1777462236 | 19.44° C | 24% | 1014.8 hPa | 0 mm | - | 0 W/m² | - |
| 1777461932 | 19.44° C | 24% | 1014.8 hPa | 0 mm | - | 0 W/m² | - |
| 1777461629 | 19.44° C | 25% | 1014.7 hPa | 0 mm | - | 0 W/m² | - |
| 1777461324 | 20° C | 24% | 1014.8 hPa | 0 mm | - | 0 W/m² | - |
* Rain latest hour (hover to see other rain measurements)
** Current wind speed in m/s (hover to see current wind gust speed)